Regional Weather Roundup
Issued by NWS Bismarck, ND

Home | Current Version | Previous Version | Text Only | Print | Product List | Glossary On
Versions: 1 2 3 4 5 6 7 8 9 10 11 12 13 14 15 16 17 18 19 20 21 22 23 24 25 26 27 28 29 30 31 32 33 34 35 36 37 38 39 40 41 42 43 44 45 46 47 48 49 50
000
ASUS43 KBIS 031202
RWRBIS

NWR BROADCAST TEXT
NATIONAL WEATHER SERVICE BISMARCK ND
700 AM CDT WED JUN 03 2015

NOTE: "FAIR" INDICATES FEW OR NO CLOUDS BELOW 12,000 FEET WITH NO
SIGNIFICANT WEATHER AND/OR OBSTRUCTIONS TO VISIBILITY.


CITY           SKY/WX    TMP DP  RH WIND       PRES   REMARKS
WILLISTON      CLEAR     49  47  93 NE6       30.02R
MINOT          CLOUDY    50  46  86 NW9       29.96S
MINOT AFB      CLOUDY    50  50 100 N8        29.96S
BISMARCK       CLOUDY    50  45  83 N15G23    29.93R
DICKINSON      LGT RAIN  49  47  93 N14       29.98R FOG
GARRISON         N/A     49  44  83 NE12G24   29.95R
HETTINGER ARPT CLOUDY    53  49  86 N15       29.97R
JAMESTOWN      LGT RAIN  56  55  97 N16       29.82R FOG
CARRINGTON     CLOUDY    48  48 100 N16       29.87R
OAKES            N/A     61  61 100 NW7       29.78R FOG
STANLEY        CLOUDY    48  48 100 NE7       30.00R
$$

CITY           SKY/WX    TMP DP  RH WIND       PRES   REMARKS
GRAND FORKS    CLOUDY    54  52  93 NW15      29.79R
GRAND FORKS AF CLOUDY    53  48  84 N12       29.81R
DEVILS LAKE    CLOUDY    48  39  71 N17G23    29.86R
FARGO          CLOUDY    61  59  93 NW15      29.72R FOG
CAVALIER       CLOUDY    52  41  66 N16G22    29.85F
GRAFTON        CLOUDY    52  45  76 N17       29.82R
LANGDON        CLOUDY    48  43  81 N16G24    29.88S
ROLLA          CLOUDY    45  41  87 N14       29.96R
WALHALLA       FAIR      52  41  66 MISG      29.89R
$$

CITY           SKY/WX    TMP DP  RH WIND       PRES   REMARKS
ABERDEEN       CLOUDY    62  57  83 W9        29.82R
MOBRIDGE       CLOUDY    59  57  93 NW18G25   29.85R
BUFFALO          N/A     53  48  83 N16       29.93R
RAPID CITY     CLEAR     54  51  90 N12       29.96R
GLASGOW        CLOUDY    54  51  90 E12       29.99R
SIDNEY         CLEAR     50  46  87 N6        30.02R
WOLF POINT     CLOUDY    52  49  89 VRB5      30.02R FOG
GLENDIVE       CLOUDY    48  46  93 N3        30.02R
MILES CITY     PTCLDY    50  49  96 NE6       30.00R
BAKER          CLOUDY    52  48  86 N8        30.01R
$$

CITY           SKY/WX    TMP DP  RH WIND       PRES   REMARKS
BILLINGS       PTCLDY    51  49  92 SW3       29.99S
GREAT FALLS    PTCLDY    45  44  97 SW7       29.97S
$$




USA.gov is the U.S. government's official web portal to all federal, state and local government web resources and services.